Location: Bergheim
(50.9593°N, 6.6400°E)
Time: 11:02:22
(UTC+02:00)

ISS - Pass Details

Date: 22 May 2021
Orbit: 417 x 422 km, 51.6° (Epoch: 13 June)

Event Time Altitude Azimuth Distance (km) Brightness Sun altitude
Rises 01:20:15 0° 285° (WNW) 2,371 0.3 -18.6°
Reaches altitude 10° 01:22:25 10° 277° (W) 1,505 -0.8 -18.6°
Enters shadow 01:24:15 26° 256° (WSW) 873 -2.3 -18.6°
